[[[{"header":{"parameterUnit":"kt","parameterCategory":2,"dx":1,"dy":1,"la1":30.253999710083008,"la2":30.299108505249023,"lo1":-89.0895004272461,"lo2":-89.04439544677734,"nx":28,"ny":28,"refTime":"2022-10-10T21:00:00:Z","depth":"0","parameterNumber":2,"parameterNumberName":"U-component_of_CURRENTS"},"data":[0.2942,0.3031,0.3048,0.3054,0.3058,0.3013,0.2984,0.2904,0.2838,0.2556,0.226,0.2122,0.164,0.109,0.068,0.0666,0.0626,0.0488,0.0648,0.1013,0.109,0.1164,0.0949,0.0432,0.0431,0.0026,0.0022,0.0019,0.288,0.2939,0.2995,0.3026,0.3047,0.3044,0.3069,0.3028,0.3017,0.3002,0.2998,0.2593,0.2318,0.2073,0.1564,0.1368,0.1369,0.1302,0.1177,0.1228,0.1754,0.1541,0.1141,0.1141,0.1141,0.1141,0.1141,0.1142,0.28,0.2842,0.2909,0.2958,0.3004,0.3009,0.2995,0.3073,0.3102,0.3129,0.3219,0.3148,0.2917,0.2733,0.268,0.2253,0.2416,0.2097,0.2111,0.2071,0.185,0.2346,0.2226,0.2229,0.2232,0.2235,0.2237,0,0.2772,0.2787,0.2824,0.2881,0.2934,0.2946,0.3018,0.3049,0.3128,0.3194,0.327,0.3301,0.3315,0.3146,0.3096,0.3055,0.2894,0.3027,0.2903,0.2322,0.2134,0.2089,0.2766,0.2763,0.277,0.2775,0.2778,0.2781,0.2763,0.2775,0.2798,0.2834,0.2847,0.2878,0.2936,0.2973,0.3053,0.3163,0.3246,0.336,0.3419,0.3524,0.3412,0.3428,0.3356,0.319,0.3014,0.2798,0.2758,0.2668,0.2633,0.2851,0.2842,0.2835,0.2829,0,0.2772,0.2777,0.2794,0.2821,0.2828,0.2851,0.2902,0.2974,0.3031,0.3136,0.3175,0.3306,0.3417,0.351,0.3672,0.3594,0.3477,0.3616,0.3349,0.3296,0.2858,0.2821,0.2695,0.2644,0.3474,0.3469,0.3465,0,0.2771,0.2784,0.2795,0.2803,0.283,0.2855,0.2902,0.2942,0.3022,0.3094,0.3154,0.3227,0.3343,0.3455,0.3497,0.3514,0.3675,0.3446,0.3437,0.3219,0.3177,0.3025,0.2974,0.3716,0.3714,0.3713,0.3711,0,0.2759,0.2783,0.2792,0.2801,0.2829,0.2848,0.2869,0.2926,0.2963,0.3059,0.3108,0.3203,0.3282,0.336,0.3427,0.3384,0.3612,0.3564,0.3414,0.3399,0.3205,0.3162,0.3092,0.3709,0.3708,0.3707,0.3707,0,0.2756,0.2761,0.2781,0.2804,0.2813,0.2831,0.2876,0.2904,0.2974,0.2994,0.3049,0.3072,0.3176,0.3125,0.3298,0.3219,0.3282,0.333,0.3339,0.3087,0.3016,0.2981,0.3023,0.2846,0.3423,0.342,0.3418,0,0.2736,0.2753,0.2752,0.2779,0.279,0.2797,0.2827,0.2852,0.2868,0.2915,0.2951,0.2997,0.2963,0.2986,0.3042,0.311,0.3192,0.3071,0.3227,0.3233,0.3002,0.3078,0.2825,0.2995,0.3381,0.3384,0.3387,0,0.2713,0.2717,0.2722,0.2727,0.2738,0.2746,0.2779,0.2799,0.2827,0.2835,0.2877,0.2916,0.2921,0.2931,0.2934,0.2991,0.3132,0.2966,0.2968,0.3072,0.3318,0.3061,0.3062,0.3107,0.3111,0.3114,0.3358,0,0.269,0.2692,0.2706,0.2707,0.2713,0.2729,0.2732,0.2744,0.273,0.2731,0.278,0.2789,0.281,0.2823,0.2803,0.2904,0.2907,0.2869,0.284,0.2909,0.3005,0.3028,0.273,0.2729,0.2728,0.2727,0,0,0.2664,0.2659,0.2644,0.2657,0.266,0.2644,0.2657,0.2664,0.2654,0.2664,0.2642,0.2678,0.268,0.2743,0.2765,0.2752,0.2794,0.274,0.2858,0.2873,0.2886,0.2982,0.3005,0.2725,0.2725,0.2724,0.2724,0,0.2645,0.2635,0.2638,0.2639,0.2639,0.263,0.263,0.262,0.2624,0.2623,0.2623,0.2649,0.2637,0.2672,0.2679,0.2729,0.275,0.2727,0.2773,0.2846,0.2862,0.2876,0.2973,0.2995,0.2721,0.2721,0.2721,0,0.2617,0.2604,0.26,0.259,0.2589,0.2598,0.2567,0.2578,0.2587,0.255,0.2566,0.257,0.2569,0.2605,0.2617,0.2593,0.2707,0.2635,0.264,0.2654,0.2728,0.2745,0.2761,0.2563,0.2562,0.2562,0,0,0.2604,0.2597,0.2579,0.2584,0.2586,0.2566,0.2563,0.2558,0.2551,0.2549,0.254,0.2542,0.2559,0.256,0.2575,0.2587,0.2623,0.2618,0.2625,0.2631,0.2648,0.2723,0.2739,0.2561,0.2561,0.2561,0,0,0.2601,0.2575,0.2563,0.2566,0.2561,0.2547,0.2559,0.2535,0.2532,0.2538,0.2518,0.2518,0.255,0.2532,0.2517,0.2578,0.2544,0.2546,0.2594,0.2603,0.261,0.2632,0.2513,0,0,0,0,0,0.2568,0.2576,0.2564,0.2562,0.2546,0.2547,0.2546,0.2538,0.252,0.253,0.252,0.2516,0.2533,0.2519,0.2518,0.2561,0.2545,0.2548,0.2551,0.2616,0.2626,0.2634,0,0,0,0,0,0,0.2567,0.2564,0.2564,0.255,0.2546,0.2547,0.2532,0.253,0.2521,0.2521,0.2516,0.2516,0.2516,0.2519,0.2518,0.256,0.2513,0.2546,0.2549,0.2551,0.262,0.2627,0.2634,0,0,0,0,0,0.2566,0.2563,0.2541,0.2549,0.2546,0.2535,0.2532,0.253,0.2523,0.2521,0.252,0.2518,0.2516,0.2516,0.2518,0.2561,0.2514,0.2514,0.2548,0.255,0.2551,0.2623,0,0,0,0,0,0,0.2565,0.2561,0.254,0.2539,0.2552,0.2536,0.2534,0.2531,0.2524,0.2523,0.2524,0.2524,0.2516,0.2516,0.2515,0.2563,0.2514,0.2514,0.2514,0.2549,0.2551,0.2552,0,0,0,0,0,0,0.2562,0.256,0.254,0.2544,0.2543,0.2537,0.2535,0.253,0.2524,0.2528,0.2527,0.2524,0.2521,0.2516,0.2515,0.2508,0.2515,0.2514,0.2514,0.2514,0.255,0.2552,0,0,0,0,0,0,0.2561,0.2559,0.2544,0.2543,0.2542,0.2525,0.2533,0.252,0.252,0.2528,0.252,0.252,0.2521,0.252,0.2515,0.2509,0.2508,0.2515,0.2515,0.2514,0.2514,0,0,0,0,0,0,0,0.256,0.2576,0.2549,0.2543,0.2542,0.2525,0.2525,0.2524,0.252,0.252,0.252,0.252,0.2517,0.2516,0.2516,0.2509,0,0,0.2515,0.2515,0,0,0,0,0,0,0,0,0.2577,0.2576,0.2549,0.2549,0.2548,0.2525,0.2525,0.2524,0.252,0.252,0.252,0.252,0.2517,0.2516,0.2516,0,0,0,0,0,0,0,0,0,0,0,0,0,0,0,0.2549,0.2549,0,0.2525,0.2525,0.2524,0.252,0.252,0.252,0.252,0.2517,0.2516,0.2516,0,0,0,0,0,0,0,0,0,0,0,0,0,0,0,0,0,0,0,0,0,0,0,0,0,0,0,0,0,0,0,0,0,0,0,0,0,0,0,0,0,0,0,0,0,0,0,0,0,0,0,0,0,0,0,0,0,0,0,0,0,0,0,0,0,0,0,0,0]}],[{"header":{"parameterUnit":"kt","parameterCategory":2,"dx":1,"dy":1,"la1":30.253999710083008,"la2":30.299108505249023,"lo1":-89.0895004272461,"lo2":-89.04439544677734,"nx":28,"ny":28,"refTime":"2022-10-10T21:00:00:Z","depth":"0","parameterNumber":3,"parameterNumberName":"V-component_of_CURRENTS"},"data":[0.0392,0.0503,0.0532,0.07,0.0788,0.0905,0.0982,0.1133,0.1316,0.1525,0.1622,0.1712,0.1526,0.1201,0.0826,0.0722,0.0601,0.0618,0.0561,0.058,0.0587,0.0593,0.0505,0.0531,0.0531,0.0451,0.045,0.0449,0.031,0.0377,0.0511,0.0639,0.0761,0.0814,0.1029,0.1112,0.1308,0.1602,0.1791,0.1822,0.1686,0.1476,0.1054,0.0833,0.0737,0.0735,0.0715,0.0674,0.0769,0.0687,0.0753,0.0753,0.0753,0.0754,0.0754,0.0754,0.02,0.0269,0.0364,0.048,0.0624,0.0776,0.0868,0.107,0.1282,0.1543,0.1711,0.1899,0.1813,0.1567,0.1396,0.1039,0.104,0.0833,0.0819,0.084,0.0727,0.0802,0.094,0.094,0.094,0.094,0.094,0,0.0108,0.0134,0.0202,0.0338,0.0463,0.0594,0.0762,0.0893,0.1072,0.1272,0.1551,0.1687,0.177,0.1657,0.1478,0.1309,0.0992,0.1036,0.0965,0.0701,0.0693,0.0617,0.0674,0.087,0.087,0.087,0.087,0.087,0.0026,0.0055,0.0141,0.0221,0.0256,0.0375,0.0495,0.0605,0.0766,0.1059,0.1217,0.1423,0.1572,0.1584,0.1356,0.1202,0.1075,0.1042,0.0803,0.0715,0.0664,0.0657,0.0602,0.0867,0.0867,0.0868,0.0868,0,-0.0001,0.0001,0.0064,0.0126,0.016,0.0239,0.0399,0.0533,0.0647,0.0893,0.0964,0.1137,0.1246,0.1189,0.1179,0.1,0.0917,0.0916,0.0899,0.0876,0.0658,0.062,0.0815,0.0769,0.0889,0.089,0.0891,0,-0.0041,-0.0009,0.0018,0.0042,0.014,0.0149,0.0292,0.0349,0.0502,0.0674,0.0687,0.0869,0.0809,0.0893,0.075,0.0749,0.0818,0.0587,0.0574,0.0537,0.0529,0.0468,0.0424,0.0621,0.0619,0.0618,0.0616,0,-0.007,-0.0047,-0.001,-0.0003,0.0044,0.0088,0.0129,0.0217,0.0311,0.0447,0.0569,0.0611,0.0722,0.066,0.061,0.0505,0.0696,0.0546,0.0505,0.0504,0.0505,0.0496,0.061,0.0614,0.0613,0.0613,0.0612,0,-0.011,-0.0092,-0.0062,-0.0009,0.0004,0.0027,0.0126,0.0155,0.0255,0.0296,0.0366,0.0378,0.0446,0.0331,0.039,0.0319,0.0284,0.0265,0.0271,0.0229,0.0129,0.0291,0.0447,0.0368,0.0305,0.0302,0.0299,0,-0.0134,-0.011,-0.0112,-0.0081,-0.0066,-0.0064,-0.003,0.0002,0.003,0.0117,0.0119,0.0175,0.0055,0.009,0.0097,0.0084,0.0132,0.0019,0.0114,0.0118,0.0089,0.0231,0.0212,0.04,0.0262,0.0266,0.0269,0,-0.0151,-0.0147,-0.0144,-0.0124,-0.0133,-0.0119,-0.0107,-0.0074,-0.001,-0.0041,0.0057,-0.0019,-0.0001,-0.0023,-0.0069,-0.0042,0.0069,-0.0115,-0.0114,-0.0017,0.0217,0.0183,0.0205,0.0015,0.0019,0.0023,0.024,0,-0.0167,-0.0161,-0.016,-0.0149,-0.0148,-0.0147,-0.015,-0.0142,-0.015,-0.0146,-0.0117,-0.0168,-0.0166,-0.0205,-0.0268,-0.0195,-0.0205,-0.0266,-0.0296,-0.0216,-0.0135,-0.0112,-0.0416,-0.0418,-0.0419,-0.0421,0,0,-0.0182,-0.0169,-0.0175,-0.017,-0.0167,-0.0184,-0.0174,-0.0186,-0.0217,-0.0198,-0.0244,-0.0267,-0.0339,-0.0314,-0.0318,-0.0365,-0.0335,-0.0385,-0.0274,-0.0258,-0.0243,-0.0161,-0.0137,-0.0423,-0.0424,-0.0424,-0.0425,0,-0.0181,-0.0182,-0.0172,-0.0178,-0.0184,-0.0195,-0.019,-0.0212,-0.0223,-0.0242,-0.0284,-0.0294,-0.0387,-0.0401,-0.0428,-0.0389,-0.0414,-0.0431,-0.0343,-0.029,-0.0272,-0.0256,-0.0171,-0.0148,-0.0429,-0.0428,-0.0428,0,-0.0186,-0.0184,-0.0183,-0.0187,-0.0201,-0.0203,-0.0227,-0.0238,-0.0237,-0.031,-0.0334,-0.0376,-0.0441,-0.047,-0.049,-0.0513,-0.0463,-0.0536,-0.0529,-0.0494,-0.044,-0.042,-0.0402,-0.0629,-0.0629,-0.0629,0,0,-0.0185,-0.0178,-0.0188,-0.0189,-0.0192,-0.0215,-0.0224,-0.0244,-0.0277,-0.0297,-0.0349,-0.0402,-0.0443,-0.0475,-0.0525,-0.0551,-0.0523,-0.0557,-0.0548,-0.054,-0.0501,-0.0445,-0.0426,-0.0631,-0.0631,-0.0631,0,0,-0.0195,-0.0196,-0.0198,-0.0199,-0.0211,-0.0244,-0.0254,-0.0265,-0.0306,-0.0315,-0.0387,-0.0408,-0.0444,-0.0492,-0.0499,-0.0544,-0.0586,-0.0586,-0.0512,-0.0501,-0.0492,-0.0433,-0.0578,0,0,0,0,0,-0.0191,-0.0189,-0.0189,-0.019,-0.0216,-0.0232,-0.0239,-0.0277,-0.0286,-0.0295,-0.0342,-0.0399,-0.0508,-0.0517,-0.0535,-0.0532,-0.0648,-0.0645,-0.0642,-0.0554,-0.0541,-0.0531,0,0,0,0,0,0,-0.0192,-0.0193,-0.019,-0.0217,-0.0223,-0.0233,-0.0266,-0.0277,-0.0288,-0.0295,-0.0384,-0.0402,-0.0463,-0.0513,-0.0529,-0.0523,-0.0573,-0.0647,-0.0644,-0.0642,-0.0549,-0.0539,-0.0531,0,0,0,0,0,-0.0193,-0.0193,-0.0222,-0.0219,-0.0224,-0.0267,-0.0267,-0.0277,-0.0292,-0.0374,-0.0392,-0.0319,-0.046,-0.0479,-0.0523,-0.0514,-0.0563,-0.0568,-0.0645,-0.0643,-0.0641,-0.0545,0,0,0,0,0,0,-0.0193,-0.0213,-0.0224,-0.0228,-0.0227,-0.0269,-0.0276,-0.0277,-0.0374,-0.0388,-0.0314,-0.0319,-0.0458,-0.0473,-0.0487,-0.0506,-0.0555,-0.056,-0.0564,-0.0644,-0.0642,-0.0641,0,0,0,0,0,0,-0.0213,-0.0216,-0.0226,-0.0235,-0.024,-0.027,-0.0276,-0.0328,-0.0377,-0.0311,-0.0316,-0.0315,-0.0455,-0.0469,-0.048,-0.0558,-0.0548,-0.0554,-0.0557,-0.056,-0.0642,-0.0641,0,0,0,0,0,0,-0.0215,-0.0218,-0.0235,-0.0239,-0.0244,-0.0289,-0.0321,-0.0359,-0.0339,-0.0308,-0.0342,-0.0344,-0.0451,-0.0462,-0.0475,-0.0548,-0.0556,-0.0549,-0.0552,-0.0555,-0.0556,0,0,0,0,0,0,0,-0.0217,-0.0185,-0.0198,-0.0242,-0.0246,-0.0258,-0.026,-0.0261,-0.0339,-0.034,-0.0342,-0.0343,-0.0519,-0.0524,-0.053,-0.0539,0,0,-0.0548,-0.0551,0,0,0,0,0,0,0,0,-0.0185,-0.0185,-0.0198,-0.0198,-0.0199,-0.0258,-0.026,-0.0261,-0.0339,-0.034,-0.0341,-0.0342,-0.052,-0.0525,-0.0529,0,0,0,0,0,0,0,0,0,0,0,0,0,0,0,-0.0198,-0.0198,0,-0.0258,-0.0259,-0.026,-0.0339,-0.034,-0.0341,-0.0342,-0.0521,-0.0525,-0.0529,0,0,0,0,0,0,0,0,0,0,0,0,0,0,0,0,0,0,0,0,0,0,0,0,0,0,0,0,0,0,0,0,0,0,0,0,0,0,0,0,0,0,0,0,0,0,0,0,0,0,0,0,0,0,0,0,0,0,0,0,0,0,0,0,0,0,0,0,0]}]],[[{"header":{"parameterUnit":"kt","parameterCategory":2,"dx":1,"dy":1,"la1":30.253999710083008,"la2":30.299108505249023,"lo1":-89.0895004272461,"lo2":-89.04439544677734,"nx":28,"ny":28,"refTime":"2022-10-10T21:00:00:Z","depth":"2","parameterNumber":2,"parameterNumberName":"U-component_of_CURRENTS"},"data":[0.2709,0.2826,0.2857,0.2924,0.3008,0.2997,0.2966,0.2739,0.2514,0.2015,0.1704,0.1501,0.1441,0.106,0.0974,0.0843,0.1112,0.0793,0.1456,0.1625,0.1686,0.1821,0.1623,0,0,0,0,0,0.2665,0.2775,0.2882,0.299,0.3038,0.3126,0.3144,0.3034,0.2896,0.2702,0.2516,0.1974,0.1608,0.1562,0.131,0.121,0.1266,0.1191,0.1276,0.1344,0.1405,0.1232,0.0737,0.0735,0.0734,0.0732,0,0,0.2626,0.2694,0.282,0.2937,0.3055,0.3091,0.3099,0.3135,0.3124,0.3026,0.3086,0.2787,0.2676,0.2089,0.1949,0.1896,0.2072,0.1964,0.1994,0.2031,0.1884,0.1806,0.1564,0.1568,0.1571,0.1574,0.1576,0,0.2591,0.2646,0.2735,0.2863,0.2976,0.3057,0.3167,0.3205,0.3293,0.334,0.336,0.328,0.3165,0.282,0.2584,0.2451,0.2632,0.2451,0.3025,0.2349,0.2286,0.2257,0.2283,0.2157,0.2164,0.2169,0.2173,0.2176,0.2577,0.2612,0.2719,0.2801,0.286,0.2962,0.3051,0.313,0.3218,0.3368,0.3441,0.3512,0.3445,0.3335,0.3158,0.2967,0.311,0.2631,0.2493,0.2945,0.2914,0.2915,0.2915,0.2252,0.2243,0.2235,0.2228,0,0.2588,0.2625,0.2681,0.2762,0.2802,0.2862,0.2992,0.3087,0.3182,0.3337,0.3391,0.3537,0.3539,0.3529,0.3512,0.3381,0.3271,0.3173,0.2913,0.284,0.2959,0.2951,0.2943,0.2935,0.2928,0.2922,0.2917,0,0.2583,0.2619,0.2665,0.2703,0.2791,0.2804,0.2936,0.3001,0.313,0.3236,0.3329,0.343,0.3486,0.3517,0.3442,0.3308,0.3451,0.3126,0.3091,0.2871,0.2831,0.3234,0.3218,0.3361,0.336,0.3359,0.3359,0,0.2553,0.2595,0.2645,0.2662,0.2722,0.278,0.2825,0.293,0.3005,0.3167,0.3252,0.3357,0.3454,0.3416,0.3384,0.3353,0.3395,0.3358,0.3109,0.3094,0.283,0.2784,0.3358,0.3358,0.3358,0.3357,0.3357,0,0.254,0.2566,0.2615,0.2659,0.2674,0.2714,0.2826,0.2874,0.3005,0.3064,0.317,0.3213,0.3322,0.3247,0.3307,0.3269,0.3234,0.3209,0.3212,0.2935,0.2858,0.2694,0.2697,0.3215,0.3214,0.3212,0.3211,0,0.2524,0.2553,0.2554,0.2603,0.2621,0.2646,0.2708,0.2755,0.2821,0.2933,0.2991,0.3088,0.3051,0.3111,0.313,0.3146,0.3163,0.3114,0.3082,0.3082,0.2871,0.2928,0.2659,0.2697,0.3194,0.3196,0.3197,0,0.2485,0.2503,0.2508,0.2528,0.2544,0.255,0.2616,0.2671,0.2747,0.2783,0.29,0.2965,0.2998,0.3017,0.3036,0.3047,0.3135,0.2983,0.2981,0.3034,0.3177,0.2936,0.2924,0.3087,0.3089,0.309,0.3184,0,0.2461,0.2471,0.2485,0.2501,0.2504,0.2523,0.2534,0.2577,0.2615,0.2643,0.2743,0.2771,0.2842,0.2864,0.2852,0.2947,0.2913,0.2866,0.2817,0.289,0.292,0.2931,0.276,0.2758,0.2756,0.2754,0,0,0.2429,0.2443,0.2424,0.2433,0.2444,0.2439,0.2459,0.2486,0.2509,0.2551,0.2542,0.2647,0.2662,0.2758,0.2794,0.2778,0.2765,0.2765,0.2845,0.2856,0.2865,0.2898,0.2911,0.275,0.2749,0.2748,0.2748,0,0.2416,0.2416,0.2422,0.2421,0.2415,0.2421,0.2426,0.2442,0.2477,0.2508,0.2535,0.2592,0.2604,0.2653,0.2669,0.274,0.2713,0.2739,0.2808,0.2826,0.284,0.2851,0.2887,0.29,0.2742,0.2743,0.2743,0,0.2392,0.2384,0.2385,0.2374,0.2389,0.24,0.2394,0.2404,0.2435,0.2415,0.249,0.2506,0.2507,0.256,0.2578,0.2547,0.2648,0.2608,0.2618,0.2614,0.2628,0.2644,0.2658,0.2483,0.2483,0.2482,0,0,0.238,0.2381,0.2361,0.237,0.2371,0.2383,0.2387,0.2393,0.2407,0.2423,0.2446,0.2464,0.2493,0.2503,0.2512,0.2538,0.2522,0.2583,0.2595,0.2605,0.2607,0.2624,0.2638,0.2481,0.2481,0.2481,0,0,0.2382,0.2363,0.2366,0.2365,0.2362,0.2367,0.2383,0.2392,0.2419,0.2435,0.2439,0.2441,0.2489,0.2459,0.2443,0.2525,0.2466,0.2468,0.2569,0.2583,0.2595,0.2602,0.2436,0,0,0,0,0,0.2358,0.2358,0.236,0.2358,0.2364,0.2359,0.2361,0.238,0.2409,0.242,0.244,0.2437,0.2458,0.2444,0.2442,0.2514,0.2466,0.2468,0.2471,0.2606,0.2621,0.2634,0,0,0,0,0,0,0.2357,0.2356,0.2359,0.2361,0.2361,0.236,0.2381,0.2387,0.2408,0.2414,0.2435,0.2436,0.2433,0.2444,0.2442,0.2512,0.2437,0.2467,0.2469,0.2471,0.2611,0.2624,0.2635,0,0,0,0,0,0.2356,0.2355,0.2362,0.2362,0.2362,0.2376,0.2383,0.2388,0.2424,0.2407,0.2412,0.2438,0.2432,0.2432,0.2443,0.2514,0.2438,0.2437,0.2468,0.247,0.2472,0.2617,0,0,0,0,0,0,0.2356,0.2376,0.2363,0.2363,0.2368,0.2379,0.2383,0.2389,0.2417,0.242,0.2406,0.241,0.2431,0.2431,0.2431,0.2518,0.2438,0.2438,0.2438,0.247,0.2471,0.2472,0,0,0,0,0,0,0.2376,0.2377,0.2363,0.2371,0.2372,0.238,0.2384,0.2375,0.2417,0.2418,0.242,0.2407,0.2418,0.2431,0.2431,0.2417,0.2439,0.2438,0.2438,0.2438,0.2471,0.2472,0,0,0,0,0,0,0.2376,0.2377,0.2372,0.2373,0.2375,0.2386,0.2373,0.2378,0.2426,0.2417,0.2429,0.243,0.2416,0.2418,0.243,0.2417,0.2417,0.2439,0.2438,0.2438,0.2438,0,0,0,0,0,0,0,0.2377,0.2369,0.2349,0.2375,0.2377,0.2361,0.2363,0.2364,0.2427,0.2428,0.2429,0.243,0.2441,0.2441,0.244,0.2416,0,0,0.2439,0.2439,0,0,0,0,0,0,0,0,0.2368,0.2369,0.2349,0.2349,0.2348,0.2361,0.2362,0.2364,0.2427,0.2428,0.2429,0.2429,0.2441,0.2441,0.244,0,0,0,0,0,0,0,0,0,0,0,0,0,0,0,0.2349,0.2349,0,0.2362,0.2362,0.2363,0.2427,0.2428,0.2428,0.2429,0.2441,0.2441,0.244,0,0,0,0,0,0,0,0,0,0,0,0,0,0,0,0,0,0,0,0,0,0,0,0,0,0,0,0,0,0,0,0,0,0,0,0,0,0,0,0,0,0,0,0,0,0,0,0,0,0,0,0,0,0,0,0,0,0,0,0,0,0,0,0,0,0,0,0,0]}],[{"header":{"parameterUnit":"kt","parameterCategory":2,"dx":1,"dy":1,"la1":30.253999710083008,"la2":30.299108505249023,"lo1":-89.0895004272461,"lo2":-89.04439544677734,"nx":28,"ny":28,"refTime":"2022-10-10T21:00:00:Z","depth":"2","parameterNumber":3,"parameterNumberName":"V-component_of_CURRENTS"},"data":[0.0528,0.0598,0.0646,0.0818,0.0913,0.1071,0.1187,0.1393,0.1482,0.1598,0.1565,0.1497,0.1179,0.0896,0.0659,0.0495,0.0474,0.0453,0.0451,0.0567,0.0576,0.042,0.043,0,0,0,0,0,0.0523,0.0571,0.0656,0.0765,0.0888,0.0926,0.1115,0.1241,0.1475,0.1597,0.1745,0.1474,0.1228,0.0975,0.0606,0.0363,0.0373,0.0296,0.0366,0.0373,0.0378,0.038,0.0317,0.0317,0.0317,0.0317,0,0,0.0505,0.0549,0.0609,0.0699,0.0793,0.0922,0.102,0.1172,0.1352,0.1592,0.1674,0.172,0.1514,0.0999,0.0761,0.0516,0.0495,0.0353,0.0358,0.0364,0.0362,0.0339,0.0296,0.0296,0.0295,0.0295,0.0295,0,0.049,0.0512,0.0569,0.066,0.0735,0.0837,0.0942,0.1028,0.1176,0.1342,0.1576,0.1631,0.1523,0.1305,0.0917,0.0705,0.0559,0.048,0.0531,0.0486,0.0467,0.0415,0.0413,0.045,0.045,0.0451,0.0451,0.0451,0.0452,0.0491,0.0584,0.0632,0.0668,0.0741,0.0813,0.0892,0.0988,0.122,0.132,0.1415,0.1454,0.1275,0.1016,0.0707,0.0666,0.0508,0.0435,0.044,0.0387,0.0384,0.0381,0.0458,0.0457,0.0456,0.0456,0,0.0438,0.0472,0.0552,0.0636,0.0661,0.0711,0.0811,0.0885,0.0955,0.1101,0.1134,0.1256,0.1262,0.1118,0.1015,0.083,0.0673,0.0583,0.0601,0.0553,0.0395,0.0389,0.0424,0.0422,0.042,0.0418,0.0417,0,0.0429,0.0482,0.0548,0.0583,0.0656,0.0702,0.0772,0.0816,0.0892,0.0997,0.0976,0.1067,0.099,0.0976,0.0806,0.0687,0.0746,0.0527,0.0477,0.0495,0.0487,0.0535,0.0529,0.0596,0.0596,0.0597,0.0597,0,0.0404,0.0492,0.0544,0.0572,0.0658,0.0688,0.0725,0.078,0.0832,0.0876,0.0943,0.0892,0.0935,0.0827,0.0737,0.0698,0.0715,0.0637,0.0477,0.0469,0.0501,0.0492,0.0597,0.0597,0.0597,0.0597,0.0597,0,0.0399,0.045,0.0514,0.0603,0.0624,0.0654,0.0728,0.0759,0.0806,0.0817,0.0804,0.0776,0.0773,0.0692,0.0654,0.0643,0.0553,0.052,0.0516,0.0478,0.0372,0.0366,0.0397,0.0412,0.0411,0.0411,0.041,0,0.0369,0.0441,0.0469,0.0538,0.0582,0.0608,0.0643,0.0678,0.0691,0.0725,0.068,0.0672,0.0581,0.0551,0.0539,0.0515,0.0484,0.0468,0.0424,0.0424,0.0362,0.0393,0.0414,0.0385,0.0399,0.04,0.0401,0,0.0349,0.0419,0.0429,0.0469,0.0514,0.0544,0.0572,0.0616,0.0644,0.0621,0.0655,0.0578,0.0543,0.0517,0.0439,0.0446,0.0457,0.0402,0.0401,0.0385,0.045,0.0382,0.0382,0.042,0.0423,0.0424,0.0392,0,0.0357,0.0398,0.0411,0.0468,0.0492,0.0516,0.054,0.0554,0.0543,0.0548,0.0531,0.047,0.0436,0.0395,0.0357,0.0364,0.0331,0.0305,0.0294,0.0326,0.03,0.0307,0.0224,0.0224,0.0224,0.0223,0,0,0.0332,0.0378,0.0401,0.0436,0.0457,0.0459,0.0491,0.0493,0.0487,0.0494,0.0464,0.0402,0.0353,0.0319,0.0318,0.0277,0.0267,0.0273,0.03,0.0308,0.0316,0.0295,0.0301,0.0223,0.0223,0.0223,0.0223,0,0.0341,0.0366,0.0395,0.042,0.0446,0.0454,0.0461,0.0468,0.0463,0.0459,0.041,0.0378,0.0321,0.0292,0.0266,0.0272,0.0236,0.0234,0.029,0.0296,0.0305,0.0312,0.0293,0.0299,0.0223,0.0223,0.0223,0,0.034,0.0367,0.0381,0.0424,0.0427,0.0453,0.0432,0.044,0.0454,0.0394,0.0382,0.0338,0.0291,0.026,0.0243,0.0231,0.0217,0.0197,0.0198,0.0258,0.0266,0.0275,0.0284,0.0181,0.0181,0.018,0,0,0.0349,0.0378,0.0409,0.0427,0.0438,0.0435,0.0436,0.0433,0.0416,0.0404,0.0369,0.0328,0.0293,0.0266,0.0242,0.0209,0.0221,0.0191,0.0193,0.0195,0.0254,0.0264,0.0272,0.018,0.018,0.018,0,0,0.0341,0.0384,0.0391,0.0418,0.0436,0.0434,0.0431,0.0424,0.04,0.0383,0.0336,0.0324,0.0294,0.0269,0.0267,0.0219,0.0213,0.0212,0.0221,0.0223,0.0225,0.0304,0.0224,0,0,0,0,0,0.0368,0.0385,0.0393,0.0399,0.0419,0.0439,0.0438,0.0422,0.0397,0.0406,0.0365,0.0331,0.0264,0.0261,0.0249,0.0228,0.0172,0.0173,0.0174,0.0181,0.0183,0.0185,0,0,0,0,0,0,0.037,0.038,0.0392,0.0395,0.0399,0.0438,0.0406,0.0401,0.0396,0.0393,0.034,0.0329,0.0297,0.0263,0.0253,0.0234,0.0227,0.0172,0.0173,0.0174,0.0182,0.0184,0.0186,0,0,0,0,0,0.0372,0.038,0.0422,0.0393,0.0396,0.0383,0.0405,0.0401,0.0391,0.0349,0.0338,0.038,0.0298,0.0287,0.0257,0.0239,0.0234,0.023,0.0173,0.0174,0.0175,0.0183,0,0,0,0,0,0,0.0374,0.0364,0.0421,0.0421,0.0387,0.038,0.0381,0.0401,0.0345,0.0338,0.0386,0.0384,0.0299,0.029,0.0281,0.0243,0.0239,0.0235,0.0233,0.0174,0.0174,0.0175,0,0,0,0,0,0,0.036,0.0364,0.0421,0.0414,0.0412,0.0378,0.0379,0.0346,0.0343,0.0384,0.0382,0.0385,0.0298,0.0293,0.0286,0.0235,0.0243,0.0239,0.0237,0.0236,0.0174,0.0175,0,0,0,0,0,0,0.0361,0.0364,0.0414,0.0413,0.0411,0.0399,0.0344,0.0354,0.0375,0.0385,0.0373,0.0372,0.03,0.0293,0.0289,0.0242,0.0237,0.0243,0.024,0.0239,0.0238,0,0,0,0,0,0,0,0.0361,0.0352,0.043,0.0411,0.041,0.0415,0.0414,0.0413,0.0375,0.0374,0.0373,0.0373,0.0262,0.0258,0.0255,0.0247,0,0,0.0243,0.0241,0,0,0,0,0,0,0,0,0.0349,0.0351,0.043,0.043,0.043,0.0415,0.0414,0.0414,0.0375,0.0374,0.0374,0.0373,0.0261,0.0258,0.0255,0,0,0,0,0,0,0,0,0,0,0,0,0,0,0,0.043,0.043,0,0.0415,0.0414,0.0414,0.0375,0.0374,0.0374,0.0373,0.026,0.0258,0.0255,0,0,0,0,0,0,0,0,0,0,0,0,0,0,0,0,0,0,0,0,0,0,0,0,0,0,0,0,0,0,0,0,0,0,0,0,0,0,0,0,0,0,0,0,0,0,0,0,0,0,0,0,0,0,0,0,0,0,0,0,0,0,0,0,0,0,0,0,0]}]],[[{"header":{"parameterUnit":"kt","parameterCategory":2,"dx":1,"dy":1,"la1":30.253999710083008,"la2":30.299108505249023,"lo1":-89.0895004272461,"lo2":-89.04439544677734,"nx":28,"ny":28,"refTime":"2022-10-10T21:00:00:Z","depth":"4","parameterNumber":2,"parameterNumberName":"U-component_of_CURRENTS"},"data":[0.0357,0.0257,0.0196,0.0125,0.0114,0.0163,0.0226,0.0333,0.0346,0.0505,0.0544,0.0681,0.0748,0.0848,0.0836,0.085,0.0922,0.0993,0.0989,0.1188,0.1208,0.1226,0.1174,0,0,0,0,0,0.0446,0.0321,0.027,0.0229,0.0273,0.0314,0.0404,0.0471,0.0609,0.0618,0.0723,0.0771,0.0838,0.0906,0.0862,0.097,0.108,0.0909,0.107,0.12,0.1222,0.1165,0,0,0,0,0,0,0.0531,0.0453,0.0406,0.0389,0.0414,0.0437,0.0497,0.054,0.0611,0.0811,0.0815,0.0972,0.11,0.1093,0.1099,0.1095,0.1103,0.1089,0.1115,0.1137,0.1071,0.0887,0.0799,0,0,0,0,0,0.06,0.0601,0.0555,0.0543,0.0554,0.0585,0.0647,0.0661,0.0795,0.0927,0.0999,0.1072,0.1134,0.1212,0.1205,0.1228,0.1422,0.1338,0.1351,0.1391,0.1272,0.1282,0.1286,0.1307,0.131,0.1312,0.1313,0,0.0701,0.0669,0.0668,0.065,0.0656,0.0709,0.0748,0.0864,0.0879,0.1063,0.1077,0.1227,0.1292,0.1317,0.1417,0.1438,0.1415,0.1395,0.1437,0.1307,0.1313,0.1311,0.1308,0.1331,0.1329,0.1328,0.1326,0,0.0741,0.0732,0.0691,0.0711,0.0743,0.0759,0.0855,0.0883,0.1007,0.108,0.1138,0.128,0.1379,0.1465,0.1604,0.1563,0.1589,0.1527,0.1601,0.1616,0.1346,0.1336,0.136,0.1353,0.1348,0.1343,0.1339,0,0.079,0.0773,0.0768,0.0751,0.0767,0.0808,0.0859,0.0914,0.1013,0.1065,0.1193,0.1234,0.1428,0.1509,0.1556,0.1551,0.1697,0.151,0.1517,0.1681,0.167,0.1698,0.1687,0.179,0.179,0.179,0.179,0,0.0837,0.0805,0.0772,0.0768,0.077,0.0809,0.0847,0.0929,0.0978,0.1093,0.1152,0.1268,0.1368,0.1465,0.154,0.1551,0.1667,0.1716,0.1531,0.1514,0.1694,0.1684,0.179,0.179,0.179,0.179,0.179,0,0.0859,0.0826,0.0788,0.0789,0.079,0.0801,0.0862,0.0898,0.1002,0.1044,0.1125,0.1191,0.1313,0.1312,0.1472,0.1448,0.1485,0.1526,0.1529,0.1359,0.1343,0.1431,0.1514,0.1512,0.1511,0.1509,0.1508,0,0.0895,0.0843,0.0832,0.0813,0.0783,0.0821,0.0851,0.0901,0.094,0.1009,0.1087,0.1162,0.1166,0.1221,0.1294,0.1403,0.1432,0.1382,0.1512,0.1513,0.1318,0.1359,0.1501,0.1486,0.1489,0.1491,0.1492,0,0.0915,0.0859,0.0863,0.0852,0.0843,0.0835,0.0866,0.0892,0.0935,0.0979,0.1042,0.111,0.1161,0.1193,0.123,0.1302,0.139,0.1333,0.1339,0.1297,0.1548,0.1353,0.1346,0.1483,0.1486,0.1489,0.1477,0,0.0908,0.0887,0.0877,0.085,0.0851,0.0839,0.0845,0.0881,0.0915,0.0938,0.1019,0.1061,0.1136,0.1159,0.1171,0.1276,0.1249,0.1302,0.1289,0.1352,0.1331,0.1343,0.1203,0.1203,0.1203,0.1203,0,0,0.0946,0.0894,0.0885,0.0867,0.0863,0.087,0.0855,0.0869,0.0889,0.0927,0.0929,0.1033,0.1076,0.1139,0.1157,0.1183,0.1208,0.1167,0.1315,0.1327,0.1338,0.1323,0.1334,0.1203,0.1202,0.1202,0.1202,0,0.0919,0.0909,0.0889,0.0881,0.0872,0.0857,0.0866,0.0858,0.088,0.0913,0.0942,0.1004,0.1053,0.1088,0.1112,0.1174,0.1188,0.1197,0.1202,0.1311,0.1323,0.1334,0.132,0.1331,0.1202,0.1202,0.1202,0,0.0927,0.0902,0.0892,0.0856,0.085,0.0831,0.0839,0.084,0.0847,0.087,0.091,0.0949,0.0989,0.1036,0.1067,0.106,0.1167,0.1132,0.1135,0.1124,0.1235,0.1249,0.1261,0.1101,0.11,0.1099,0,0,0.092,0.09,0.0864,0.0848,0.0841,0.0836,0.0838,0.0838,0.0847,0.0861,0.0888,0.0933,0.0971,0.0999,0.1029,0.1079,0.1101,0.1117,0.1122,0.1126,0.1117,0.1228,0.1241,0.1097,0.1097,0.1097,0,0,0.0912,0.0864,0.0868,0.0836,0.0826,0.0795,0.0802,0.0813,0.0843,0.0862,0.0879,0.0888,0.0947,0.0967,0.0933,0.1032,0.1017,0.1024,0.1004,0.1011,0.1016,0.0992,0.0925,0,0,0,0,0,0.0885,0.0866,0.087,0.0862,0.0819,0.0793,0.0792,0.0792,0.0816,0.0822,0.0855,0.0862,0.0952,0.0921,0.0931,0.0966,0.1067,0.1072,0.1077,0.1065,0.1072,0.1077,0,0,0,0,0,0,0.0881,0.0868,0.087,0.0834,0.0825,0.0793,0.0793,0.0793,0.0815,0.0817,0.0854,0.0862,0.0862,0.0918,0.0926,0.096,0.0922,0.1069,0.1074,0.1078,0.1067,0.1073,0.1077,0,0,0,0,0,0.0878,0.0868,0.0795,0.0835,0.0828,0.0822,0.0794,0.0794,0.0821,0.0826,0.0833,0.0825,0.0861,0.0871,0.0923,0.0956,0.0916,0.0919,0.1072,0.1076,0.1079,0.107,0,0,0,0,0,0,0.0876,0.0876,0.0794,0.0793,0.0841,0.0826,0.0821,0.0794,0.0831,0.0835,0.0794,0.0796,0.086,0.0868,0.0876,0.0954,0.0912,0.0915,0.0917,0.1075,0.1077,0.108,0,0,0,0,0,0,0.0882,0.0875,0.0794,0.08,0.08,0.0829,0.0824,0.0854,0.0833,0.0798,0.0799,0.0795,0.0869,0.0866,0.0872,0.0917,0.0908,0.0911,0.0913,0.0914,0.1077,0.1079,0,0,0,0,0,0,0.088,0.0874,0.08,0.08,0.08,0.0791,0.0859,0.083,0.0795,0.0799,0.0796,0.0797,0.0868,0.0873,0.0869,0.0912,0.0916,0.0908,0.091,0.0912,0.0913,0,0,0,0,0,0,0,0.0878,0.0909,0.0798,0.0801,0.0801,0.0784,0.0784,0.0783,0.0795,0.0796,0.0796,0.0797,0.0891,0.0895,0.0898,0.0907,0,0,0.0908,0.0909,0,0,0,0,0,0,0,0,0.0912,0.091,0.0798,0.0798,0.0797,0.0784,0.0784,0.0783,0.0795,0.0796,0.0796,0.0797,0.0892,0.0895,0.0897,0,0,0,0,0,0,0,0,0,0,0,0,0,0,0,0.0798,0.0798,0,0.0784,0.0784,0.0783,0.0795,0.0796,0.0796,0.0796,0.0893,0.0895,0.0897,0,0,0,0,0,0,0,0,0,0,0,0,0,0,0,0,0,0,0,0,0,0,0,0,0,0,0,0,0,0,0,0,0,0,0,0,0,0,0,0,0,0,0,0,0,0,0,0,0,0,0,0,0,0,0,0,0,0,0,0,0,0,0,0,0,0,0,0,0]}],[{"header":{"parameterUnit":"kt","parameterCategory":2,"dx":1,"dy":1,"la1":30.253999710083008,"la2":30.299108505249023,"lo1":-89.0895004272461,"lo2":-89.04439544677734,"nx":28,"ny":28,"refTime":"2022-10-10T21:00:00:Z","depth":"4","parameterNumber":3,"parameterNumberName":"V-component_of_CURRENTS"},"data":[0.0272,0.032,0.0356,0.0415,0.0467,0.0544,0.0579,0.0591,0.0569,0.0576,0.0477,0.0475,0.0293,0.0385,0.0124,0.0091,0.009,-0.0127,-0.0129,-0.0113,-0.0107,-0.0102,0.0022,0,0,0,0,0,0.0291,0.0331,0.0368,0.044,0.0498,0.0556,0.0599,0.0624,0.065,0.0603,0.0619,0.0487,0.0317,0.0245,0.012,0.009,-0.0031,-0.0057,-0.004,-0.0109,-0.0103,0.0015,0,0,0,0,0,0,0.0318,0.034,0.0406,0.0463,0.0528,0.0574,0.0603,0.0627,0.065,0.0651,0.061,0.0504,0.0444,0.0269,0.0112,-0.001,0.0002,-0.0003,-0.0003,0.0002,0.0109,0.0172,0.0002,0,0,0,0,0,0.0361,0.0395,0.0436,0.0506,0.0559,0.0613,0.0672,0.0668,0.0717,0.0732,0.0669,0.0584,0.0427,0.029,0.0116,-0.0011,-0.0014,-0.0098,-0.0093,0.0031,0.0068,0.0055,0.0072,-0.008,-0.0079,-0.0079,-0.0079,0,0.0404,0.043,0.0517,0.0546,0.059,0.0651,0.069,0.0749,0.0755,0.0746,0.0725,0.0625,0.0578,0.0309,0.0209,0.0013,0.0,-0.0083,0.005,0.008,0.0061,0.0078,0.0094,-0.0074,-0.0074,-0.0075,-0.0075,0,0.0422,0.048,0.0529,0.0613,0.0643,0.0673,0.0749,0.0761,0.0783,0.0768,0.0768,0.0725,0.0599,0.049,0.0302,0.0257,0.0109,0.0043,0.0146,0.0121,0.0094,0.0108,-0.0066,-0.0067,-0.0069,-0.007,-0.0071,0,0.0463,0.05,0.0582,0.061,0.0653,0.0713,0.0743,0.0767,0.0781,0.0779,0.0785,0.0745,0.0674,0.0561,0.0476,0.0321,0.0298,0.025,0.0213,0.0331,0.0343,0.0291,0.0301,0.023,0.0232,0.0233,0.0234,0,0.0466,0.0546,0.0589,0.0617,0.0691,0.0721,0.0759,0.0782,0.0798,0.0789,0.0779,0.0742,0.0711,0.0616,0.0521,0.0559,0.0337,0.037,0.0269,0.0267,0.0304,0.031,0.0236,0.0236,0.0237,0.0237,0.0238,0,0.0498,0.0541,0.0594,0.0662,0.0681,0.0713,0.0751,0.0779,0.0789,0.0792,0.0787,0.0776,0.0748,0.0744,0.0619,0.0673,0.0585,0.0519,0.0509,0.0475,0.0462,0.0433,0.0395,0.0397,0.0399,0.0401,0.0403,0,0.0485,0.0545,0.0587,0.064,0.0675,0.0716,0.0742,0.0771,0.0782,0.0787,0.0782,0.078,0.0801,0.0793,0.0755,0.0688,0.0621,0.071,0.05,0.0493,0.0492,0.0453,0.0629,0.0432,0.0428,0.0426,0.0424,0,0.0475,0.056,0.0569,0.0603,0.0661,0.0684,0.0717,0.0752,0.0761,0.0785,0.0787,0.0799,0.0795,0.0785,0.0777,0.0728,0.0658,0.0702,0.0697,0.0625,0.049,0.0487,0.0469,0.064,0.0638,0.0636,0.0444,0,0.05,0.0542,0.056,0.0619,0.0644,0.0672,0.0707,0.0731,0.0753,0.0768,0.0775,0.0767,0.0763,0.0764,0.0765,0.0733,0.0699,0.0693,0.0667,0.0666,0.0581,0.0566,0.0732,0.0731,0.073,0.073,0,0,0.0478,0.0529,0.0566,0.0599,0.0625,0.0653,0.068,0.0699,0.0731,0.0742,0.0751,0.0743,0.074,0.073,0.075,0.0738,0.0682,0.073,0.0677,0.0672,0.0666,0.0586,0.0572,0.0728,0.0728,0.0728,0.0727,0,0.0491,0.0532,0.0559,0.0588,0.063,0.0648,0.066,0.0698,0.072,0.0735,0.074,0.0743,0.0732,0.0729,0.0721,0.073,0.0669,0.0726,0.074,0.0673,0.0669,0.0664,0.0585,0.0573,0.0725,0.0725,0.0726,0,0.0492,0.0528,0.0546,0.0597,0.0622,0.0648,0.0663,0.0689,0.071,0.0701,0.0731,0.0726,0.0707,0.0709,0.0707,0.0696,0.0645,0.0686,0.0689,0.0679,0.0607,0.0603,0.06,0.0643,0.0643,0.0643,0,0,0.05,0.0534,0.0575,0.0601,0.0619,0.0649,0.0663,0.0684,0.0701,0.0713,0.0718,0.0713,0.0707,0.0704,0.0694,0.068,0.0626,0.0678,0.0682,0.0686,0.0678,0.0608,0.0604,0.0643,0.0643,0.0643,0,0,0.05,0.0556,0.0575,0.0609,0.0637,0.0665,0.0679,0.0696,0.0713,0.0719,0.0715,0.0714,0.0719,0.0697,0.0699,0.069,0.067,0.0669,0.0713,0.0717,0.0721,0.0718,0.0687,0,0,0,0,0,0.0529,0.0547,0.0564,0.0574,0.0627,0.0653,0.0658,0.0691,0.0705,0.072,0.0727,0.0715,0.0704,0.0705,0.0698,0.0705,0.0642,0.0643,0.0643,0.0695,0.07,0.0704,0,0,0,0,0,0,0.0533,0.0546,0.0563,0.0592,0.0604,0.0652,0.067,0.0679,0.0706,0.0712,0.0715,0.0714,0.0709,0.0707,0.0701,0.0709,0.0689,0.0642,0.0643,0.0643,0.0697,0.0701,0.0704,0,0,0,0,0,0.0536,0.0547,0.0632,0.0591,0.0601,0.0644,0.0672,0.0679,0.0705,0.0697,0.07,0.0734,0.0708,0.0703,0.0703,0.0712,0.0693,0.0691,0.0642,0.0643,0.0643,0.0699,0,0,0,0,0,0,0.0539,0.0546,0.0634,0.0637,0.0604,0.0643,0.0654,0.0679,0.0689,0.0693,0.0713,0.0717,0.0706,0.0703,0.07,0.0715,0.0696,0.0694,0.0693,0.0643,0.0643,0.0643,0,0,0,0,0,0,0.054,0.0548,0.0635,0.065,0.0655,0.0642,0.0651,0.0623,0.0687,0.0703,0.0708,0.0714,0.0699,0.0703,0.0701,0.0656,0.0699,0.0697,0.0695,0.0694,0.0643,0.0643,0,0,0,0,0,0,0.0543,0.0551,0.065,0.0653,0.0658,0.0693,0.0615,0.066,0.0727,0.0701,0.0731,0.0733,0.0697,0.0696,0.0701,0.0657,0.0656,0.0699,0.0697,0.0696,0.0696,0,0,0,0,0,0,0,0.0546,0.05,0.0617,0.0656,0.066,0.0664,0.0665,0.0666,0.0728,0.0729,0.0731,0.0733,0.0711,0.0709,0.0706,0.0658,0,0,0.0699,0.0698,0,0,0,0,0,0,0,0,0.0497,0.0499,0.0617,0.0618,0.0619,0.0664,0.0665,0.0665,0.0728,0.0729,0.0731,0.0732,0.0711,0.0709,0.0707,0,0,0,0,0,0,0,0,0,0,0,0,0,0,0,0.0617,0.0618,0,0.0664,0.0665,0.0665,0.0728,0.0729,0.073,0.0731,0.071,0.0708,0.0707,0,0,0,0,0,0,0,0,0,0,0,0,0,0,0,0,0,0,0,0,0,0,0,0,0,0,0,0,0,0,0,0,0,0,0,0,0,0,0,0,0,0,0,0,0,0,0,0,0,0,0,0,0,0,0,0,0,0,0,0,0,0,0,0,0,0,0,0,0]}]]]